Flag for U.S.A. Weather past 2 weeks in Charleston, West Virginia, U.S.A.

Now
30 °F

Broken clouds.


Feels Like: 17 °F
Forecast: 20 / 36 °F
Wind: 20 mph from Northwest

Location: Yeager Airport

Current Time: Jan 30, 2015 at 11:07:32 AM

Latest Report: Jan 30, 2015 at 9:54 AM


Visibility: 10 mi

Pressure: 30.29 "Hg

Humidity: 61%

Dew point: 18 °F

Location of CharlestonLocation

Historic Weather in Charleston — Graph

°F

Charleston temperature yesterday

Maximum temperature yesterday: 50 °F (at 1:54 PM)
Minimum temperature yesterday: 22 °F (at 12:54 AM)
Average temperature yesterday: 37 °F

Past Weeks' High & Low Weather Summary

 TemperatureHumidityPressure
High58 °F (Jan 17, 2:54 PM)97% (Jan 23, 5:54 PM)30.42 "Hg (Jan 23, 5:54 PM)
Low16 °F (Jan 27, 6:54 AM)30% (Jan 17, 2:54 PM)29.62 "Hg (Jan 26, 5:54 AM)
Average35 °F72%30.03 "Hg
* Reported Jan 15 9:54 AM — Jan 30 9:54 AM, Charleston, Weather by CustomWeather, © 2014

Note: Actual official high and low records may vary slightly from our data, if they occured in-between our weather recording intervals... More about our weather records

Advertising

Charleston weather history for previous 24 hours

 ConditionsComfort  
Time TempWeatherWind HumidityBarometerVisibility
9:54 AM
Jan 30
30 °FBroken clouds.20 mph61%30.29 "Hg10 mi
8:54 AM31 °FBroken clouds.15 mph69%30.25 "Hg10 mi
7:54 AM31 °FLight snow. Ice fog.10 mph89%30.22 "Hg1 mi
6:54 AM31 °FLight snow. Ice fog.7 mph85%30.20 "Hg4 mi
5:54 AM32 °FLight snow. Overcast.9 mph79%30.19 "Hg6 mi
4:54 AM32 °FLight snow. Mostly cloudy.13 mph82%30.17 "Hg4 mi
3:54 AM33 °FLight snow. Mostly cloudy.7 mph82%30.15 "Hg6 mi
2:54 AM33 °FLight snow. Fog.8 mph85%30.14 "Hg6 mi
1:54 AM34 °FLight snow. Mostly cloudy.10 mph79%30.13 "Hg9 mi
12:54 AM34 °FSleet. Fog.10 mph85%30.12 "Hg6 mi
11:54 PM
Jan 29
36 °FLight snow. Mostly cloudy.15 mph75%30.11 "Hg8 mi
10:54 PM38 °FLight rain. Mostly cloudy.13 mph73%30.09 "Hg9 mi
9:54 PM39 °FOvercast.9 mph79%30.06 "Hg10 mi
8:54 PM41 °FDrizzle. Mostly cloudy.16 mph80%30.04 "Hg7 mi
7:54 PM47 °FOvercast.14 mph64%29.99 "Hg10 mi
6:54 PM49 °FOvercast.9 mph66%29.95 "Hg10 mi
5:54 PM50 °FOvercast.No wind57%29.90 "Hg10 mi
4:54 PM49 °FOvercast.9 mph59%29.88 "Hg10 mi
3:54 PM49 °FOvercast.10 mph59%29.88 "Hg10 mi
2:54 PM50 °FOvercast.14 mph57%29.88 "Hg10 mi
1:54 PM50 °FPartly sunny.17 mph59%29.89 "Hg10 mi
12:54 PM44 °FMostly cloudy.12 mph68%29.93 "Hg10 mi
11:54 AM40 °FLight rain. Mostly cloudy.5 mph80%29.97 "Hg9 mi
Weather by CustomWeather, © 2014

See weather overviewHow to use our weather pages